sat.trackr.live / text

‹ back to catalog

ONEWEB-0273

NORAD 48991 · 2021-060AA

PAYLOAD ACTIVE UNKNOWN

§ Identity

Operator
Country
UK
Launch date
2021-07-01
Launch site
VOSTO
Launch vehicle
Mass (kg)
RCS (m²)

Purposes: comms

External: N2YO · Heavens-Above · Gunter

§ Orbital elements

Epoch: 2026-09-19T16:18:21.039552Z

Period
109.37 min
Inclination
87.9142°
Eccentricity
0.0001998
Mean motion
13.16593498 rev/d
Perigee alt
1,196.2 km
Apogee alt
1,199.3 km
Semi-major
7,575.9 km
B*
-7.5207e-5
RAAN
210.0205°
Arg perigee
72.7862°
Mean anomaly
287.3487°
Rev number
25,202

§ Raw data

ONEWEB-02731 48991U 21060AA  26262.67941018 -.00000016  00000+0 -75207-4 0  99972 48991  87.9142 210.0205 0001998  72.7862 287.3487 13.16593498252022

JSON: /api/v1/satellites/48991 · /tle

For live sub-satellite position, see the globe view (requires WebGL).

§ Visibility from observer

Set your observer location to see the next 7 days of passes ≥ 10°. The values pass through the URL so the page stays shareable.

No JS? Fill the form by hand. The geolocation button needs JavaScript.